TimeCDT,TemperatureF,Dew PointF,Humidity,Sea Level PressureIn,VisibilityMPH,Wind Direction,Wind SpeedMPH,Gust SpeedMPH,PrecipitationIn,Events,Conditions,WindDirDegrees,DateUTC
12:15 AM,53.6,50.0,88,29.83,10.0,SSW,8.1,-,N/A,,Partly Cloudy,200,2013-09-24 05:15:00
12:35 AM,53.6,50.0,88,29.84,10.0,SSW,10.4,-,N/A,,Clear,200,2013-09-24 05:35:00
12:55 AM,51.8,50.0,94,29.85,10.0,North,-9999.0,-,N/A,,Clear,0,2013-09-24 05:55:00
1:15 AM,50.0,48.2,94,29.85,10.0,North,-9999.0,-,N/A,,Clear,0,2013-09-24 06:15:00
1:35 AM,50.0,48.2,94,29.85,10.0,North,-9999.0,-,N/A,,Clear,0,2013-09-24 06:35:00
1:55 AM,48.2,48.2,100,29.85,10.0,WSW,5.8,-,N/A,,Clear,240,2013-09-24 06:55:00
2:35 AM,48.2,46.4,93,29.86,10.0,WSW,4.6,-,N/A,,Partly Cloudy,250,2013-09-24 07:35:00
2:55 AM,46.4,44.6,93,29.87,10.0,West,4.6,-,N/A,,Partly Cloudy,260,2013-09-24 07:55:00
3:15 AM,46.4,44.6,93,29.87,10.0,West,5.8,-,N/A,,Partly Cloudy,260,2013-09-24 08:15:00
3:35 AM,46.4,44.6,93,29.87,10.0,SW,4.6,-,N/A,,Partly Cloudy,220,2013-09-24 08:35:00
3:55 AM,44.6,42.8,93,29.87,10.0,Calm,Calm,-,N/A,,Partly Cloudy,0,2013-09-24 08:55:00
4:35 AM,42.8,42.8,100,29.88,10.0,WSW,5.8,-,N/A,,Clear,250,2013-09-24 09:35:00
4:55 AM,42.8,42.8,100,29.89,10.0,WSW,4.6,-,N/A,,Clear,250,2013-09-24 09:55:00
5:15 AM,44.6,42.8,93,29.90,10.0,West,4.6,-,N/A,,Clear,260,2013-09-24 10:15:00
5:35 AM,42.8,42.8,100,29.90,10.0,WSW,5.8,-,N/A,,Clear,240,2013-09-24 10:35:00
5:55 AM,44.6,42.8,93,29.91,10.0,WSW,5.8,-,N/A,,Clear,250,2013-09-24 10:55:00
6:15 AM,44.6,41.0,87,29.91,10.0,SW,6.9,-,N/A,,Partly Cloudy,230,2013-09-24 11:15:00
6:35 AM,42.8,41.0,93,29.91,10.0,Calm,Calm,-,N/A,,Clear,0,2013-09-24 11:35:00
6:55 AM,41.0,41.0,100,29.92,10.0,SW,5.8,-,N/A,,Clear,230,2013-09-24 11:55:00
7:15 AM,41.0,41.0,100,29.92,10.0,WSW,5.8,-,N/A,,Clear,240,2013-09-24 12:15:00
7:35 AM,41.0,41.0,100,29.93,10.0,WSW,4.6,-,N/A,,Clear,250,2013-09-24 12:35:00
7:55 AM,41.0,41.0,100,29.93,10.0,WSW,4.6,-,N/A,,Clear,250,2013-09-24 12:55:00
8:15 AM,42.8,41.0,93,29.94,10.0,WSW,4.6,-,N/A,,Clear,250,2013-09-24 13:15:00
8:35 AM,44.6,41.0,87,29.94,10.0,WSW,4.6,-,N/A,,Clear,250,2013-09-24 13:35:00
8:55 AM,46.4,44.6,93,29.94,10.0,WSW,4.6,-,N/A,,Clear,250,2013-09-24 13:55:00
9:15 AM,46.4,44.6,93,29.94,10.0,West,4.6,-,N/A,,Clear,260,2013-09-24 14:15:00
9:35 AM,48.2,46.4,93,29.94,10.0,West,5.8,-,N/A,,Clear,260,2013-09-24 14:35:00
9:55 AM,51.8,46.4,82,29.95,10.0,West,9.2,-,N/A,,Clear,270,2013-09-24 14:55:00
10:15 AM,53.6,46.4,77,29.95,10.0,WSW,9.2,-,N/A,,Clear,250,2013-09-24 15:15:00
10:35 AM,55.4,44.6,67,29.95,10.0,WSW,9.2,-,N/A,,Clear,250,2013-09-24 15:35:00
10:55 AM,57.2,44.6,63,29.95,10.0,West,5.8,-,N/A,,Clear,270,2013-09-24 15:55:00
11:15 AM,57.2,44.6,63,29.95,10.0,WSW,6.9,-,N/A,,Clear,250,2013-09-24 16:15:00
11:35 AM,59.0,46.4,63,29.95,10.0,West,4.6,-,N/A,,Clear,260,2013-09-24 16:35:00
11:55 AM,60.8,46.4,59,29.95,10.0,WSW,3.5,-,N/A,,Clear,240,2013-09-24 16:55:00
12:15 PM,62.6,46.4,55,29.95,10.0,SW,5.8,-,N/A,,Clear,230,2013-09-24 17:15:00
12:55 PM,64.4,41.0,42,29.94,10.0,West,6.9,-,N/A,,Clear,260,2013-09-24 17:55:00
1:15 PM,66.2,44.6,46,29.94,10.0,SW,4.6,-,N/A,,Clear,230,2013-09-24 18:15:00
1:35 PM,66.2,41.0,40,29.93,10.0,West,4.6,-,N/A,,Clear,270,2013-09-24 18:35:00
1:55 PM,68.0,41.0,37,29.92,10.0,Calm,Calm,-,N/A,,Clear,0,2013-09-24 18:55:00
2:15 PM,68.0,41.0,37,29.91,10.0,SW,4.6,-,N/A,,Clear,220,2013-09-24 19:15:00
2:35 PM,68.0,39.2,35,29.91,10.0,SW,8.1,-,N/A,,Clear,230,2013-09-24 19:35:00
2:55 PM,69.8,39.2,33,29.90,10.0,WSW,6.9,-,N/A,,Clear,250,2013-09-24 19:55:00
3:15 PM,69.8,37.4,31,29.90,10.0,SW,9.2,-,N/A,,Clear,220,2013-09-24 20:15:00
3:35 PM,71.6,39.2,31,29.89,10.0,West,6.9,-,N/A,,Clear,260,2013-09-24 20:35:00
3:55 PM,71.6,37.4,29,29.89,10.0,West,6.9,-,N/A,,Clear,260,2013-09-24 20:55:00
4:15 PM,71.6,37.4,29,29.89,10.0,SW,3.5,-,N/A,,Clear,230,2013-09-24 21:15:00
4:35 PM,71.6,37.4,29,29.88,10.0,Calm,Calm,-,N/A,,Clear,0,2013-09-24 21:35:00
4:55 PM,71.6,39.2,31,29.87,10.0,West,4.6,-,N/A,,Clear,260,2013-09-24 21:55:00
5:15 PM,71.6,37.4,29,29.87,10.0,Calm,Calm,-,N/A,,Clear,0,2013-09-24 22:15:00
5:35 PM,71.6,39.2,31,29.87,10.0,Calm,Calm,-,N/A,,Clear,0,2013-09-24 22:35:00
5:55 PM,71.6,41.0,33,29.86,10.0,SSE,4.6,-,N/A,,Clear,150,2013-09-24 22:55:00
6:15 PM,69.8,41.0,35,29.85,10.0,SE,4.6,-,N/A,,Clear,140,2013-09-24 23:15:00
6:35 PM,69.8,41.0,35,29.85,10.0,SE,4.6,-,N/A,,Clear,130,2013-09-24 23:35:00
6:55 PM,68.0,44.6,43,29.84,10.0,ESE,4.6,-,N/A,,Clear,110,2013-09-24 23:55:00
7:15 PM,66.2,44.6,46,29.84,10.0,ESE,4.6,-,N/A,,Clear,110,2013-09-25 00:15:00
7:35 PM,64.4,44.6,49,29.83,10.0,ESE,6.9,-,N/A,,Clear,120,2013-09-25 00:35:00
7:55 PM,57.2,44.6,63,29.83,10.0,ESE,5.8,-,N/A,,Clear,120,2013-09-25 00:55:00
8:15 PM,59.0,44.6,59,29.83,10.0,SE,6.9,-,N/A,,Clear,130,2013-09-25 01:15:00
8:35 PM,59.0,44.6,59,29.82,10.0,SE,8.1,-,N/A,,Clear,130,2013-09-25 01:35:00
8:55 PM,57.2,44.6,63,29.83,10.0,SE,8.1,-,N/A,,Clear,130,2013-09-25 01:55:00
9:15 PM,57.2,44.6,63,29.83,10.0,SE,8.1,-,N/A,,Clear,130,2013-09-25 02:15:00
9:35 PM,57.2,42.8,59,29.83,10.0,SE,8.1,-,N/A,,Clear,130,2013-09-25 02:35:00
9:55 PM,57.2,42.8,59,29.82,10.0,SE,8.1,-,N/A,,Clear,130,2013-09-25 02:55:00
10:15 PM,55.4,42.8,63,29.83,10.0,SE,8.1,-,N/A,,Clear,140,2013-09-25 03:15:00
10:35 PM,55.4,44.6,67,29.82,10.0,SE,6.9,-,N/A,,Clear,140,2013-09-25 03:35:00
10:55 PM,55.4,44.6,67,29.82,10.0,SE,8.1,-,N/A,,Clear,130,2013-09-25 03:55:00
11:15 PM,55.4,42.8,63,29.81,10.0,SE,8.1,-,N/A,,Clear,130,2013-09-25 04:15:00
11:35 PM,57.2,42.8,59,29.81,10.0,SE,6.9,-,N/A,,Clear,130,2013-09-25 04:35:00
11:55 PM,53.6,42.8,67,29.81,8.0,NE,4.6,-,N/A,,Partly Cloudy,40,2013-09-25 04:55:00